| time (UTC) | temp C | wind direction | speed KPH | gust KPH | rain 1hr cm | rain 24hr cm | rain mn cm | humidity % | barometer mb |
| 20260831084552 | 20 | 0 | 0.0 | 0.0 | 0.00 | 0.10 | 0.00 | 88 | 1019.0 |
| 20260831083043 | 20 | 0 | 0.0 | 3.2 | 0.00 | 0.10 | 0.00 | 88 | 1019.1 |
| 20260831081541 | 20 | 21 | 0.0 | 1.6 | 0.00 | 0.10 | 0.00 | 88 | 1019.1 |
| 20260831080040 | 20 | 0 | 0.0 | 0.0 | 0.00 | 0.10 | 0.00 | 88 | 1018.8 |
| 20260831074539 | 20 | 0 | 0.0 | 3.2 | 0.00 | 0.10 | 0.00 | 88 | 1018.9 |
| 20260831073041 | 20 | 288 | 1.6 | 3.2 | 0.00 | 0.10 | 0.00 | 88 | 1018.9 |
| 20260831071540 | 20 | 300 | 0.0 | 6.4 | 0.00 | 0.10 | 0.00 | 87 | 1019.0 |
| 20260831070053 | 20 | 341 | 1.6 | 4.8 | 0.00 | 0.10 | 0.00 | 87 | 1018.9 |
| 20260831064541 | 20 | 0 | 0.0 | 3.2 | 0.00 | 0.10 | 0.00 | 87 | 1019.0 |
| 20260831063042 | 20 | 330 | 1.6 | 4.8 | 0.00 | 0.10 | 0.00 | 87 | 1018.6 |
| 20260831061538 | 20 | 346 | 0.0 | 4.8 | 0.00 | 0.10 | 0.00 | 87 | 1019.0 |
| 20260831060041 | 20 | 0 | 0.0 | 6.4 | 0.00 | 0.10 | 0.00 | 87 | 1018.8 |
| 20260831054544 | 20 | 285 | 1.6 | 8.0 | 0.00 | 0.10 | 0.00 | 86 | 1018.6 |
| 20260831053053 | 20 | 321 | 3.2 | 12.9 | 0.00 | 0.10 | 0.00 | 86 | 1018.4 |
| 20260831051543 | 20 | 294 | 3.2 | 6.4 | 0.00 | 0.10 | 0.00 | 86 | 1018.5 |
| 20260831050045 | 20 | 254 | 3.2 | 6.4 | 0.00 | 0.10 | 0.00 | 87 | 1018.8 |
| 20260831044541 | 20 | 304 | 3.2 | 8.0 | 0.00 | 0.10 | 0.00 | 88 | 1018.7 |
| 20260831043042 | 20 | 281 | 3.2 | 6.4 | 0.00 | 0.10 | 0.00 | 88 | 1018.7 |
| 20260831041541 | 21 | 319 | 1.6 | 4.8 | 0.00 | 0.10 | 0.00 | 88 | 1018.5 |
| 20260831040043 | 21 | 332 | 1.6 | 4.8 | 0.00 | 0.10 | 0.00 | 89 | 1018.5 |
| 20260831034541 | 21 | 275 | 1.6 | 3.2 | 0.00 | 0.10 | 0.10 | 89 | 1018.5 |
| 20260831033058 | 21 | 0 | 0.0 | 4.8 | 0.00 | 0.10 | 0.10 | 89 | 1018.6 |
| 20260831031540 | 21 | 352 | 1.6 | 6.4 | 0.00 | 0.10 | 0.10 | 89 | 1018.7 |
| 20260831030039 | 22 | 315 | 1.6 | 3.2 | 0.00 | 0.10 | 0.10 | 89 | 1018.9 |
| 20260831024538 | 21 | 261 | 0.0 | 3.2 | 0.03 | 0.10 | 0.10 | 89 | 1018.9 |
| 20260831023040 | 21 | 242 | 1.6 | 3.2 | 0.03 | 0.10 | 0.10 | 89 | 1018.9 |
| 20260831021540 | 22 | 292 | 0.0 | 3.2 | 0.08 | 0.10 | 0.10 | 88 | 1018.9 |
| 20260831020048 | 22 | 0 | 0.0 | 0.0 | 0.10 | 0.10 | 0.10 | 88 | 1019.1 |
| 20260831014538 | 22 | 0 | 0.0 | 6.4 | 0.08 | 0.08 | 0.08 | 86 | 1019.1 |
| 20260831013042 | 22 | 304 | 1.6 | 6.4 | 0.08 | 0.08 | 0.08 | 87 | 1018.8 |
| 20260831011544 | 22 | 0 | 0.0 | 0.0 | 0.03 | 0.03 | 0.03 | 87 | 1018.7 |
| 20260831010036 | 22 | 0 | 0.0 | 3.2 | 0.00 | 0.00 | 0.00 | 85 | 1018.6 |
| 20260831004539 | 23 | 314 | 1.6 | 3.2 | 0.00 | 0.00 | 0.00 | 85 | 1018.8 |
| 20260831003041 | 23 | 0 | 0.0 | 3.2 | 0.00 | 0.00 | 0.00 | 82 | 1018.6 |
| 20260831001540 | 24 | 298 | 0.0 | 3.2 | 0.00 | 0.00 | 0.00 | 79 | 1018.3 |
| 20260831000044 | 25 | 252 | 1.6 | 6.4 | 0.00 | 0.00 | 0.00 | 76 | 1018.0 |
| 20260830234540 | 25 | 273 | 0.0 | 4.8 | 0.00 | 0.00 | 0.00 | 75 | 1017.8 |
| 20260830233044 | 25 | 313 | 3.2 | 9.7 | 0.00 | 0.00 | 0.00 | 74 | 1017.6 |
| 20260830231542 | 25 | 0 | 1.6 | 11.3 | 0.00 | 0.00 | 0.00 | 74 | 1017.6 |
| 20260830230039 | 25 | 189 | 1.6 | 8.0 | 0.00 | 0.00 | 0.00 | 74 | 1017.7 |
| 20260830224539 | 25 | 203 | 1.6 | 11.3 | 0.00 | 0.00 | 0.00 | 74 | 1017.7 |
| 20260830223040 | 25 | 218 | 3.2 | 8.0 | 0.00 | 0.00 | 0.00 | 73 | 1017.7 |
| 20260830221542 | 25 | 248 | 1.6 | 14.5 | 0.00 | 0.00 | 0.00 | 72 | 1017.9 |
| 20260830220047 | 25 | 204 | 3.2 | 14.5 | 0.00 | 0.00 | 0.00 | 72 | 1017.9 |
| 20260830214545 | 25 | 194 | 4.8 | 12.9 | 0.00 | 0.00 | 0.00 | 72 | 1017.7 |
| 20260830213039 | 25 | 235 | 6.4 | 12.9 | 0.00 | 0.00 | 0.00 | 72 | 1017.7 |
| 20260830211539 | 26 | 179 | 4.8 | 14.5 | 0.00 | 0.00 | 0.00 | 71 | 1017.8 |
| 20260830210043 | 26 | 198 | 1.6 | 9.7 | 0.00 | 0.00 | 0.00 | 72 | 1017.9 |
| 20260830204535 | 26 | 220 | 4.8 | 12.9 | 0.00 | 0.00 | 0.00 | 71 | 1018.0 |
| 20260830203041 | 25 | 218 | 1.6 | 16.1 | 0.00 | 0.00 | 0.00 | 73 | 1018.2 |
| 20260830201541 | 25 | 218 | 6.4 | 14.5 | 0.00 | 0.00 | 0.00 | 73 | 1018.3 |
| 20260830200039 | 25 | 292 | 3.2 | 11.3 | 0.00 | 0.00 | 0.00 | 73 | 1018.5 |
| 20260830194542 | 24 | 216 | 4.8 | 14.5 | 0.00 | 0.00 | 0.00 | 73 | 1018.6 |
| 20260830193038 | 24 | 284 | 3.2 | 11.3 | 0.00 | 0.00 | 0.00 | 73 | 1018.7 |
| 20260830191543 | 24 | 192 | 6.4 | 16.1 | 0.00 | 0.00 | 0.00 | 73 | 1019.0 |
| 20260830190047 | 24 | 261 | 4.8 | 17.7 | 0.00 | 0.00 | 0.00 | 72 | 1019.3 |
| 20260830184539 | 24 | 224 | 3.2 | 8.0 | 0.00 | 0.00 | 0.00 | 71 | 1019.5 |
| 20260830183041 | 24 | 227 | 4.8 | 16.1 | 0.00 | 0.00 | 0.00 | 70 | 1019.7 |
| 20260830181536 | 25 | 237 | 4.8 | 11.3 | 0.00 | 0.00 | 0.00 | 68 | 1019.8 |
| 20260830180041 | 25 | 136 | 4.8 | 17.7 | 0.00 | 0.00 | 0.00 | 66 | 1019.9 |
| 20260830174539 | 25 | 234 | 6.4 | 17.7 | 0.00 | 0.00 | 0.00 | 65 | 1020.0 |
| 20260830173035 | 25 | 297 | 4.8 | 14.5 | 0.00 | 0.00 | 0.00 | 61 | 1020.1 |
| 20260830171540 | 25 | 218 | 8.0 | 20.9 | 0.00 | 0.00 | 0.00 | 61 | 1020.3 |
| 20260830170044 | 25 | 242 | 6.4 | 16.1 | 0.00 | 0.00 | 0.00 | 60 | 1020.2 |
| 20260830164539 | 25 | 208 | 9.7 | 19.3 | 0.00 | 0.00 | 0.00 | 60 | 1020.2 |
| 20260830163041 | 24 | 193 | 8.0 | 19.3 | 0.00 | 0.00 | 0.00 | 60 | 1020.6 |
| 20260830161541 | 25 | 195 | 4.8 | 12.9 | 0.00 | 0.00 | 0.00 | 58 | 1020.8 |
| 20260830160039 | 24 | 218 | 6.4 | 17.7 | 0.00 | 0.00 | 0.00 | 57 | 1020.9 |
| 20260830154540 | 25 | 250 | 6.4 | 16.1 | 0.00 | 0.00 | 0.00 | 52 | 1021.0 |
| 20260830153042 | 25 | 186 | 6.4 | 12.9 | 0.00 | 0.00 | 0.00 | 51 | 1021.1 |
| 20260830151545 | 24 | 221 | 8.0 | 14.5 | 0.00 | 0.00 | 0.00 | 50 | 1021.5 |
| 20260830150039 | 25 | 346 | 3.2 | 14.5 | 0.00 | 0.00 | 0.00 | 51 | 1021.6 |
| 20260830144548 | 24 | 223 | 6.4 | 16.1 | 0.00 | 0.00 | 0.00 | 51 | 1021.7 |
| 20260830143039 | 24 | 221 | 4.8 | 16.1 | 0.00 | 0.00 | 0.00 | 50 | 1021.5 |
| 20260830141539 | 23 | 216 | 8.0 | 16.1 | 0.00 | 0.00 | 0.00 | 53 | 1021.4 |
| 20260830140040 | 23 | 195 | 3.2 | 9.7 | 0.00 | 0.00 | 0.00 | 54 | 1021.8 |
| 20260830134539 | 23 | 185 | 4.8 | 14.5 | 0.00 | 0.00 | 0.00 | 54 | 1021.8 |
| 20260830133038 | 22 | 261 | 1.6 | 9.7 | 0.00 | 0.00 | 0.00 | 59 | 1022.1 |
| 20260830131549 | 22 | 215 | 4.8 | 9.7 | 0.00 | 0.00 | 0.00 | 59 | 1022.2 |
| 20260830130038 | 21 | 215 | 3.2 | 6.4 | 0.00 | 0.00 | 0.00 | 64 | 1022.1 |
| 20260830124539 | 20 | 201 | 3.2 | 9.7 | 0.00 | 0.00 | 0.00 | 69 | 1022.4 |
| 20260830123042 | 20 | 229 | 0.0 | 3.2 | 0.00 | 0.00 | 0.00 | 74 | 1022.4 |
| 20260830121537 | 18 | 0 | 0.0 | 0.0 | 0.00 | 0.00 | 0.00 | 77 | 1022.5 |
| 20260830120039 | 18 | 0 | 0.0 | 0.0 | 0.00 | 0.00 | 0.00 | 78 | 1022.6 |
| 20260830114541 | 18 | 0 | 0.0 | 0.0 | 0.00 | 0.00 | 0.00 | 80 | 1022.5 |
| 20260830113041 | 17 | 0 | 0.0 | 0.0 | 0.00 | 0.00 | 0.00 | 80 | 1022.4 |
| 20260830111540 | 17 | 0 | 0.0 | 0.0 | 0.00 | 0.00 | 0.00 | 80 | 1022.3 |
| 20260830110037 | 17 | 0 | 0.0 | 0.0 | 0.00 | 0.00 | 0.00 | 80 | 1022.2 |
| 20260830104544 | 17 | 0 | 0.0 | 0.0 | 0.00 | 0.00 | 0.00 | 81 | 1022.2 |
| 20260830103039 | 16 | 0 | 0.0 | 3.2 | 0.00 | 0.00 | 0.00 | 82 | 1022.2 |
| 20260830101534 | 16 | 0 | 0.0 | 0.0 | 0.00 | 0.00 | 0.00 | 83 | 1022.2 |
| 20260830100036 | 16 | 0 | 0.0 | 0.0 | 0.00 | 0.00 | 0.00 | 80 | 1022.2 |
| 20260830094539 | 17 | 0 | 0.0 | 3.2 | 0.00 | 0.00 | 0.00 | 78 | 1022.6 |
| 20260830093043 | 17 | 225 | 1.6 | 3.2 | 0.00 | 0.00 | 0.00 | 77 | 1022.4 |
| 20260830091539 | 17 | 0 | 0.0 | 0.0 | 0.00 | 0.00 | 0.00 | 80 | 1022.4 |
| 20260830090041 | 17 | 0 | 0.0 | 3.2 | 0.00 | 0.00 | 0.00 | 80 | 1022.2 |